sat.trackr.live / text

‹ back to catalog

STARLINK-33822

NORAD 63658 · 2025-083AA

PAYLOAD ACTIVE UNKNOWN

§ Identity

Operator
Country
US
Launch date
2025-04-25
Launch site
AFETR
Launch vehicle
Mass (kg)
RCS (m²)

Purposes: comms

External: N2YO · Heavens-Above · Gunter

§ Orbital elements

Epoch: 2026-05-24T17:24:15.637536Z

Period
94.27 min
Inclination
42.9977°
Eccentricity
0.0001227
Mean motion
15.27583930 rev/d
Perigee alt
482.2 km
Apogee alt
483.9 km
Semi-major
6,861.2 km
B*
4.5961e-4
RAAN
295.9539°
Arg perigee
276.5665°
Mean anomaly
83.5046°
Rev number
6,172

§ Raw data

STARLINK-338221 63658U 25083AA  26144.72518099  .00012408  00000+0  45961-3 0  99962 63658  42.9977 295.9539 0001227 276.5665  83.5046 15.27583930 61724

JSON: /api/v1/satellites/63658 · /tle

For live sub-satellite position, see the globe view (requires WebGL).

§ Visibility from observer

Set your observer location to see the next 7 days of passes ≥ 10°. The values pass through the URL so the page stays shareable.

No JS? Fill the form by hand. The geolocation button needs JavaScript.